Regional Weather Roundup
Issued by NWS

Home | Current Version | Previous Version | Text Only | Print | Product List | Glossary Off
Versions: 1 2 3 4 5 6 7 8 9 10 11 12 13 14 15 16 17 18 19 20 21 22 23 24 25 26 27 28

000
ASUS45 KCYS 280310
RWRWY

WYOMING REGIONAL WEATHER ROUNDUP
NATIONAL WEATHER SERVICE CHEYENNE WY
900 PM MDT SAT MAY 27 2017

NOTE:  "FAIR" INDICATES FEW OR NO CLOUDS BELOW 12,000 FEET
WITH NO SIGNIFICANT WEATHER AND/OR OBSTRUCTIONS TO VISIBILITY.

WYZ001-280400-
YELLOWSTONE NATIONAL PARK

CITY           SKY/WX    TMP DP  RH WIND       PRES   REMARKS
LK YELLOWSTONE   N/A     41  36  82 CALM      30.36R
W YELLOWSTONE  NOT AVBL

$$
WYZ002>013-054>058-071-098>099-280400-
NORTHERN WYOMING

CITY           SKY/WX    TMP DP  RH WIND       PRES   REMARKS
JACKSON        FAIR      52  34  50 N5        30.30R
CODY           FAIR      58  32  37 CALM      30.21R
GREYBULL       FAIR      62  34  35 W3        30.13R
WORLAND          N/A     61  34  36 NW3       30.15R
SHERIDAN       CLOUDY    60  41  49 N17G24    30.14R
BUFFALO        FAIR      53  37  54 W8        30.17R
GILLETTE       CLOUDY    54  41  61 W10       30.12R
HULETT         MOCLDY    54  41  62 SW7       30.11R
NEWCASTLE      FAIR      57  32  38 NW12G22   30.11R

$$
WYZ014>020-022>026-101>103-280400-
CENTRAL WYOMING

CITY           SKY/WX    TMP DP  RH WIND       PRES   REMARKS
BIG PINEY      FAIR      45  31  58 N13       30.31S
PINEDALE       FAIR      45  30  57 NW8       30.31S
DUBOIS         FAIR      46  28  49 W10       30.29R
LANDER         FAIR      52  35  52 W10       30.22R
RIVERTON       FAIR      59  26  28 SE3       30.22S
CASPER         FAIR      49  38  65 W3        30.21R
DOUGLAS        FAIR      49  39  68 NW7       30.19R

$$
WYZ021-027>030-104>119-280400-
SOUTHERN WYOMING

CITY           SKY/WX    TMP DP  RH WIND       PRES   REMARKS
EVANSTON       FAIR      50  32  50 N9        30.32R
KEMMERER         N/A     48  32  53 NW8       30.32R
FORT BRIDGER   FAIR      51  31  45 NW9       30.33S
ROCK SPRINGS   FAIR      52  24  33 NW5       30.27R
DIXON            N/A     48  30  51 NE10      30.30R
RAWLINS        FAIR      43  30  60 N8        30.28R
SARATOGA       FAIR      46  32  57 N3        30.30R
LARAMIE        FAIR      39  30  70 NW9       30.27R WCI  33
CHEYENNE       FAIR      49  34  56 NW6       30.23R
TORRINGTON     FAIR      56  37  49 W8        30.13R
PINE BLUFFS    FAIR      45  36  70 W6        30.19S

$$




USA.gov is the U.S. government's official web portal to all federal, state and local government web resources and services.